Location: Fort Wayne
(41.1310°N, 85.1290°W)
Time: 20:26:25
(UTC-04:00)

Meteor 2-10 Rocket - Visible Passes

Search period start: 27 August 2016 00:00
Search period end: 06 September 2016 00:00
Orbit: 734 x 885 km, 81.2° (Epoch: 27 August)

Date Brightness Start Highest point End Pass type
(mag) Time Alt. Az. Time Alt. Az. Time Alt. Az.
27 Aug 5.5 05:40:05 10° SSE 05:45:14 34° E 05:50:19 10° NNE visible
28 Aug 5.9 05:16:33 10° SE 05:21:07 25° E 05:25:39 10° NE visible
29 Aug 6.3 04:53:20 10° SE 04:57:04 18° E 05:00:44 10° NE visible
29 Aug 3.8 06:32:50 10° SSW 06:38:34 61° WNW 06:44:12 10° N visible
30 Aug 6.5 04:30:46 10° ESE 04:33:02 12° E 04:35:17 10° ENE visible
30 Aug 3.8 06:08:29 10° S 06:14:18 84° W 06:19:59 10° N visible
31 Aug 4.0 05:44:18 10° S 05:50:04 71° E 05:55:42 10° NNE visible
01 Sep 4.6 05:20:19 10° SSE 05:25:52 51° E 05:31:19 10° NNE visible
02 Sep 5.1 04:56:30 10° SSE 05:01:43 36° E 05:06:49 10° NNE visible
02 Sep 4.6 06:38:48 10° SW 06:43:47 30° WNW 06:48:40 10° NNW visible
03 Sep 5.6 04:32:56 10° SE 04:37:36 26° E 04:42:11 10° NE visible
03 Sep 4.2 06:14:02 10° SW 06:19:25 41° WNW 06:24:41 10° N visible
04 Sep 6.0 04:09:39 10° SE 04:13:31 19° E 04:17:20 10° NE visible
04 Sep 3.8 05:50:13 14° SSW 05:55:06 56° WNW 06:00:35 10° N visible
05 Sep 6.3 03:46:54 10° ESE 03:49:28 13° E 03:52:01 10° ENE visible
05 Sep 3.6 05:27:00 22° SSW 05:30:48 78° W 05:36:23 10° N visible
